Regional Weather Roundup
Issued by NWS

Home | Current Version | Previous Version | Graphics & Text | Print | Product List | Glossary Off
Versions: 1 2 3 4 5 6 7 8 9 10 11 12 13 14 15 16 17 18 19 20 21 22 23 24 25 26 27 28 29 30 31 32 33 34 35 36 37 38 39 40 41 42 43 44 45 46 47 48 49 50

000
ASUS43 KTOP 190059
RWRKS

WEATHER ROUNDUP FOR KANSAS
NATIONAL WEATHER SERVICE GOODLAND KS
700 PM CST SAT FEB 18 2017

NOTE:  "FAIR" INDICATES FEW OR NO CLOUDS BELOW 12,000 FEET WITH NO
SIGNIFICANT WEATHER AND/OR OBSTRUCTIONS TO VISIBILITY.

KSZ001>006-013>018-027>032-041>047-190200-
NORTHWEST KANSAS

CITY           SKY/WX    TMP DP  RH WIND       PRES   REMARKS
GOODLAND       CLOUDY    48  28  46 SE9       29.71S
HAYS           MOCLDY    57  37  47 SE9       29.74R
HILL CITY      CLOUDY    55  35  47 E7        29.74R
RUSSELL        PTCLDY    60  38  43 SE10      29.73R
$$

KSZ061>065-074>080-084>089-190200-
SOUTHWEST KANSAS

CITY           SKY/WX    TMP DP  RH WIND       PRES   REMARKS
DODGE CITY     CLOUDY    56  37  49 SE10      29.76R
ELKHART          N/A     52  26  36 SE9         N/A
GARDEN CITY    CLEAR     56  30  37 SE10      29.73S
GREAT BEND     PTCLDY    60  40  47 S10       29.77R
LIBERAL        CLEAR     57  28  33 SE9       29.75S
$$

KSZ066>073-081>083-090>101-190200-
SOUTHEAST KANSAS

CITY           SKY/WX    TMP DP  RH WIND       PRES   REMARKS
CHANUTE        CLEAR     55  48  77 S7        29.84R
COFFEYVILLE    CLEAR     59  51  75 S9        29.85R
HUTCHINSON     CLOUDY    57  43  59 S10       29.77R
MEDICINE LODGE   N/A     58  48  69 MISG      29.79R
NEWTON         CLEAR     59  40  49 S10       29.79R
PARSONS        CLEAR     58  50  75 S7        29.85R
WICHITA INTL   CLOUDY    56  45  66 S8        29.78R
WICHITA JABRA  CLEAR     59  45  59 S9        29.79R
WINFIELD       CLOUDY    60  48  64 SE7       29.81R
$$

KSZ007>012-019>026-033>040-048>060-102>105-190200-
NORTHEAST KANSAS

CITY           SKY/WX    TMP DP  RH WIND       PRES   REMARKS
CONCORDIA      PTCLDY    57  39  51 S8        29.75R
EMPORIA        CLEAR     60  41  49 S9        29.79R
LAWRENCE       PTCLDY    54  42  64 E5        29.80R
MANHATTAN      PTCLDY    55  41  59 CALM      29.76R
OLATHE IND     CLEAR     57  41  55 S5        29.81R
OLATHE EXE     CLEAR     59  43  55 S3        29.81R
SALINA         PTCLDY    59  41  51 S8        29.76R
TOPEKA BILLARD CLEAR     59  40  49 E5        29.78R
TOPEKA FORBES  CLEAR     62  41  46 SE3       29.79R
$$




USA.gov is the U.S. government's official web portal to all federal, state and local government web resources and services.